This is the latest recevied weather packets stored in our database for station/object N9GKE-1. If no packets are shown the sender has not sent any weather packets the latest 1 day(s).
| Time | Temp. | Humidity | Pressure | Rain* | Wind** | Luminosity | Snow |
|---|---|---|---|---|---|---|---|
| 1777986185 | 13.33° C | 92% | 1008 hPa | 0 mm | 0.45 m/s, 248° | - | - |
| 1777985954 | 13.33° C | 93% | 1007.8 hPa | 0 mm | 0.45 m/s, 276° | - | - |
| 1777985577 | 13.33° C | 93% | 1007.4 hPa | 0 mm | 0 m/s | - | - |
| 1777985349 | 13.33° C | 93% | 1007.3 hPa | 0 mm | 0 m/s | - | - |
| 1777984978 | 13.33° C | 93% | 1006.9 hPa | 0 mm | 0.45 m/s, 219° | - | - |
| 1777984749 | 13.33° C | 94% | 1006.7 hPa | 0 mm | 0.45 m/s, 277° | - | - |
| 1777984377 | 13.33° C | 94% | 1006.8 hPa | 0 mm | 0 m/s | - | - |
| 1777984150 | 13.33° C | 94% | 1006.8 hPa | 0 mm | 0.45 m/s, 235° | - | - |
| 1777983778 | 13.33° C | 94% | 1006.9 hPa | 0 mm | 0.45 m/s, 207° | - | - |
| 1777983551 | 13.33° C | 94% | 1006.8 hPa | 0 mm | 0.45 m/s, 220° | - | - |
| 1777983177 | 13.33° C | 94% | 1006.6 hPa | 0 mm | 0.89 m/s, 237° | - | - |
| 1777982950 | 13.33° C | 94% | 1006.7 hPa | 0 mm | 0.89 m/s, 237° | - | - |
| 1777982577 | 13.33° C | 94% | 1006.6 hPa | 0 mm | 0.45 m/s, 193° | - | - |
| 1777982349 | 13.33° C | 94% | 1006.5 hPa | 0 mm | 0.45 m/s, 201° | - | - |
| 1777981979 | 12.78° C | 94% | 1006.5 hPa | 0 mm | 0.45 m/s, 220° | - | - |
| 1777981750 | 12.78° C | 94% | 1006.4 hPa | 0 mm | 0.45 m/s, 202° | - | - |
| 1777981378 | 12.78° C | 94% | 1006.5 hPa | 0 mm | 0.45 m/s, 216° | - | - |
| 1777981150 | 12.78° C | 94% | 1006.3 hPa | 0 mm | 0.45 m/s, 198° | - | - |
| 1777980778 | 12.78° C | 94% | 1005.9 hPa | 0 mm | 0.45 m/s, 192° | - | - |
| 1777980549 | 12.78° C | 94% | 1005.7 hPa | 0 mm | 0 m/s | - | - |
| 1777980177 | 12.78° C | 94% | 1005.2 hPa | 0 mm | 0.89 m/s, 182° | - | - |
| 1777979949 | 12.78° C | 94% | 1005.1 hPa | 0 mm | 0.89 m/s, 200° | - | - |
| 1777979578 | 12.78° C | 94% | 1005.1 hPa | 0 mm | 0 m/s | - | - |
| 1777979349 | 12.78° C | 93% | 1005.4 hPa | 0 mm | 0 m/s | - | - |
| 1777978978 | 12.78° C | 94% | 1005.3 hPa | 0 mm | 0 m/s | - | - |
* Rain latest hour (hover to see other rain measurements)
** Current wind speed in m/s (hover to see current wind gust speed)